TPC7202 NZAA-NWWW

Flight info

Callsign TPC7202
Flight time N/A
Altitude 19000
Route LENGU DCT 3658S17431E DCT ELNOS/N0275F200 G591 SCUBA
Aircraft AT76/M-SDFGIRY/S

Departure

Time N/A
Airport Auckland International Airport (NZAA)

Arrival

Time 2026-04-20 05:03
Airport La Tontouta International Airport (NWWW)
Time Latitude Longitude Altitude Speed Heading
2026-04-20 03:03 -29.07371 167.95536 23838 ft 201 kts 310°
2026-04-20 03:03 -29.06225 167.94610 23831 ft 202 kts 310°
2026-04-20 03:03 -29.05074 167.93683 23832 ft 202 kts 310°
2026-04-20 03:04 -29.03849 167.92863 23838 ft 217 kts 325°
2026-04-20 03:04 -29.02325 167.92490 23831 ft 228 kts 331°
2026-04-20 03:04 -29.00761 167.92168 23839 ft 229 kts 331°
2026-04-20 03:04 -28.99201 167.91821 23834 ft 228 kts 330°
2026-04-20 03:05 -28.97632 167.91427 23826 ft 227 kts 329°
2026-04-20 03:05 -28.96097 167.91027 23828 ft 226 kts 329°
2026-04-20 03:05 -28.94576 167.90625 23829 ft 226 kts 329°
2026-04-20 03:05 -28.93049 167.90218 23830 ft 226 kts 329°
2026-04-20 03:06 -28.91518 167.89813 23832 ft 226 kts 329°
2026-04-20 03:06 -28.89988 167.89407 23832 ft 226 kts 329°
2026-04-20 03:06 -28.88457 167.89003 23832 ft 226 kts 329°
2026-04-20 03:06 -28.86918 167.88597 23833 ft 226 kts 329°
2026-04-20 03:07 -28.85384 167.88192 23835 ft 226 kts 329°
2026-04-20 03:07 -28.83848 167.87784 23839 ft 227 kts 329°
2026-04-20 03:07 -28.82304 167.87373 23836 ft 228 kts 329°
2026-04-20 03:07 -28.80790 167.86969 23828 ft 228 kts 330°
2026-04-20 03:08 -28.79239 167.86560 23828 ft 228 kts 330°
2026-04-20 03:08 -28.77670 167.86148 23829 ft 228 kts 330°
2026-04-20 03:08 -28.76127 167.85742 23831 ft 228 kts 330°
2026-04-20 03:08 -28.75032 167.85454 23831 ft 228 kts 330°
2026-04-20 03:09 -28.73473 167.85036 23832 ft 227 kts 330°
2026-04-20 03:09 -28.71952 167.84628 23819 ft 228 kts 330°
2026-04-20 03:09 -28.70405 167.84219 23833 ft 228 kts 330°
2026-04-20 03:09 -28.68859 167.83814 23844 ft 229 kts 330°
2026-04-20 03:10 -28.67302 167.83405 23845 ft 229 kts 330°
2026-04-20 03:10 -28.65742 167.82993 23838 ft 230 kts 330°
2026-04-20 03:10 -28.64179 167.82578 23834 ft 231 kts 330°
2026-04-20 03:10 -28.62635 167.82165 23827 ft 231 kts 330°
2026-04-20 03:11 -28.61069 167.81750 23825 ft 231 kts 330°
2026-04-20 03:11 -28.59505 167.81337 23826 ft 230 kts 330°
2026-04-20 03:11 -28.57947 167.80924 23830 ft 229 kts 330°
2026-04-20 03:11 -28.56408 167.80517 23833 ft 229 kts 330°
2026-04-20 03:12 -28.54858 167.80105 23830 ft 229 kts 330°
2026-04-20 03:12 -28.53303 167.79692 23830 ft 229 kts 330°
2026-04-20 03:12 -28.51736 167.79278 23831 ft 229 kts 330°
2026-04-20 03:12 -28.50188 167.78871 23832 ft 229 kts 330°
2026-04-20 03:13 -28.48637 167.78462 23832 ft 228 kts 330°
2026-04-20 03:13 -28.47088 167.78054 23832 ft 228 kts 330°
2026-04-20 03:13 -28.45542 167.77646 23832 ft 228 kts 330°
2026-04-20 03:13 -28.43994 167.77239 23832 ft 228 kts 330°
2026-04-20 03:14 -28.42447 167.76834 23832 ft 228 kts 330°
2026-04-20 03:14 -28.40900 167.76428 23832 ft 228 kts 330°
2026-04-20 03:14 -28.39377 167.76025 23832 ft 228 kts 330°
2026-04-20 03:14 -28.37830 167.75617 23833 ft 228 kts 331°
2026-04-20 03:15 -28.36281 167.75213 23832 ft 228 kts 331°
2026-04-20 03:15 -28.34731 167.74806 23832 ft 228 kts 330°
2026-04-20 03:15 -28.33183 167.74400 23832 ft 228 kts 331°
2026-04-20 03:15 -28.31639 167.73996 23833 ft 228 kts 330°
2026-04-20 03:16 -28.30083 167.73589 23835 ft 229 kts 331°
2026-04-20 03:16 -28.28531 167.73182 23833 ft 229 kts 331°
2026-04-20 03:16 -28.26981 167.72774 23831 ft 229 kts 331°
2026-04-20 03:16 -28.25431 167.72364 23831 ft 229 kts 330°
2026-04-20 03:17 -28.23884 167.71946 23832 ft 228 kts 330°
2026-04-20 03:17 -28.22453 167.71555 23832 ft 228 kts 330°
2026-04-20 03:17 -28.20875 167.71123 23831 ft 228 kts 330°
2026-04-20 03:17 -28.19327 167.70707 23833 ft 228 kts 330°
2026-04-20 03:18 -28.17800 167.70303 23837 ft 229 kts 330°
2026-04-20 03:18 -28.16245 167.69894 23837 ft 229 kts 330°
2026-04-20 03:18 -28.14684 167.69487 23831 ft 230 kts 331°
2026-04-20 03:18 -28.13138 167.69093 23830 ft 231 kts 331°
2026-04-20 03:19 -28.11591 167.68705 23836 ft 231 kts 331°
2026-04-20 03:19 -28.10022 167.68310 23832 ft 231 kts 331°
2026-04-20 03:19 -28.08456 167.67913 23829 ft 231 kts 331°
2026-04-20 03:19 -28.06888 167.67515 23829 ft 230 kts 331°
2026-04-20 03:20 -28.05330 167.67121 23829 ft 229 kts 331°
2026-04-20 03:20 -28.03774 167.66723 23831 ft 229 kts 331°
2026-04-20 03:20 -28.02224 167.66325 23831 ft 229 kts 331°
2026-04-20 03:20 -28.00670 167.65926 23831 ft 229 kts 331°
2026-04-20 03:21 -27.99118 167.65530 23832 ft 229 kts 331°
2026-04-20 03:21 -27.97564 167.65133 23832 ft 229 kts 332°
2026-04-20 03:21 -27.96011 167.64741 23832 ft 228 kts 331°
2026-04-20 03:21 -27.94461 167.64346 23833 ft 228 kts 331°
2026-04-20 03:22 -27.92906 167.63951 23832 ft 228 kts 331°
2026-04-20 03:22 -27.91375 167.63562 23832 ft 228 kts 331°
2026-04-20 03:22 -27.89828 167.63169 23834 ft 228 kts 331°
2026-04-20 03:22 -27.88277 167.62775 23837 ft 228 kts 331°
2026-04-20 03:23 -27.86731 167.62382 23840 ft 228 kts 331°
2026-04-20 03:23 -27.85191 167.61983 23840 ft 226 kts 329°
2026-04-20 03:23 -27.83663 167.61584 23840 ft 224 kts 330°
2026-04-20 03:23 -27.82146 167.61200 23842 ft 224 kts 330°
2026-04-20 03:24 -27.80627 167.60828 23843 ft 223 kts 330°
2026-04-20 03:24 -27.79104 167.60462 23841 ft 224 kts 332°
2026-04-20 03:24 -27.77569 167.60098 23841 ft 225 kts 332°
2026-04-20 03:24 -27.76036 167.59708 23841 ft 226 kts 332°
2026-04-20 03:25 -27.74500 167.59315 23841 ft 227 kts 332°
2026-04-20 03:25 -27.72975 167.58925 23843 ft 228 kts 331°
2026-04-20 03:25 -27.71425 167.58531 23843 ft 229 kts 332°
2026-04-20 03:25 -27.69871 167.58139 23842 ft 229 kts 332°
2026-04-20 03:26 -27.68311 167.57746 23842 ft 229 kts 332°
2026-04-20 03:26 -27.66753 167.57350 23840 ft 230 kts 332°
2026-04-20 03:26 -27.65193 167.56957 23840 ft 230 kts 332°
2026-04-20 03:26 -27.63632 167.56562 23841 ft 230 kts 332°
2026-04-20 03:27 -27.62072 167.56168 23842 ft 230 kts 332°
2026-04-20 03:27 -27.60511 167.55773 23842 ft 230 kts 332°
2026-04-20 03:27 -27.58944 167.55377 23841 ft 230 kts 332°
2026-04-20 03:27 -27.57382 167.54982 23841 ft 231 kts 332°
2026-04-20 03:28 -27.56346 167.54720 23841 ft 230 kts 332°
2026-04-20 03:28 -27.54783 167.54326 23841 ft 230 kts 332°
2026-04-20 03:28 -27.51655 167.53537 23842 ft 230 kts 332°
2026-04-20 03:29 -27.50095 167.53144 23842 ft 230 kts 332°
2026-04-20 03:29 -27.48529 167.52749 23842 ft 230 kts 332°
2026-04-20 03:29 -27.46967 167.52354 23842 ft 230 kts 332°
2026-04-20 03:29 -27.45407 167.51959 23842 ft 230 kts 332°
2026-04-20 03:30 -27.43843 167.51566 23842 ft 230 kts 332°
2026-04-20 03:30 -27.42274 167.51172 23841 ft 231 kts 332°
2026-04-20 03:30 -27.40710 167.50774 23841 ft 231 kts 332°
2026-04-20 03:30 -27.39140 167.50375 23841 ft 231 kts 332°
2026-04-20 03:31 -27.37571 167.49978 23845 ft 231 kts 332°
2026-04-20 03:31 -27.36027 167.49589 23848 ft 231 kts 332°
2026-04-20 03:31 -27.34466 167.49189 23848 ft 230 kts 331°
2026-04-20 03:31 -27.32914 167.48776 23849 ft 229 kts 331°
2026-04-20 03:32 -27.31360 167.48369 23851 ft 229 kts 331°
2026-04-20 03:32 -27.29804 167.47977 23851 ft 229 kts 332°
2026-04-20 03:32 -27.28245 167.47582 23850 ft 229 kts 332°
2026-04-20 03:32 -27.26684 167.47185 23852 ft 230 kts 332°
2026-04-20 03:33 -27.25122 167.46791 23852 ft 230 kts 332°
2026-04-20 03:33 -27.23560 167.46399 23851 ft 230 kts 332°
2026-04-20 03:33 -27.22018 167.46010 23852 ft 230 kts 332°
2026-04-20 03:33 -27.20451 167.45617 23852 ft 230 kts 332°
2026-04-20 03:34 -27.18880 167.45225 23851 ft 231 kts 332°
2026-04-20 03:34 -27.17310 167.44833 23851 ft 231 kts 332°
2026-04-20 03:34 -27.15739 167.44437 23849 ft 231 kts 332°
2026-04-20 03:34 -27.14176 167.44044 23849 ft 231 kts 332°
2026-04-20 03:35 -27.12619 167.43646 23848 ft 227 kts 329°
2026-04-20 03:35 -27.11082 167.43260 23848 ft 225 kts 330°
2026-04-20 03:35 -27.09569 167.42902 23847 ft 223 kts 330°
2026-04-20 03:35 -27.08036 167.42562 23853 ft 226 kts 333°
2026-04-20 03:36 -27.06496 167.42203 23854 ft 226 kts 332°
2026-04-20 03:36 -27.04966 167.41811 23853 ft 227 kts 332°
2026-04-20 03:36 -27.03431 167.41421 23852 ft 228 kts 332°
2026-04-20 03:36 -27.01868 167.41026 23852 ft 229 kts 332°
2026-04-20 03:37 -27.00310 167.40630 23850 ft 230 kts 332°
2026-04-20 03:37 -26.98745 167.40240 23851 ft 231 kts 332°
2026-04-20 03:37 -26.97177 167.39849 23852 ft 231 kts 332°
2026-04-20 03:37 -26.95614 167.39460 23854 ft 231 kts 332°
2026-04-20 03:38 -26.94041 167.39067 23858 ft 231 kts 332°
2026-04-20 03:38 -26.92470 167.38676 23859 ft 231 kts 332°
2026-04-20 03:38 -26.90899 167.38283 23859 ft 231 kts 332°
2026-04-20 03:38 -26.89330 167.37892 23859 ft 231 kts 332°
2026-04-20 03:39 -26.87777 167.37505 23860 ft 231 kts 332°
2026-04-20 03:39 -26.86207 167.37114 23860 ft 231 kts 332°
2026-04-20 03:39 -26.84633 167.36723 23860 ft 231 kts 332°
2026-04-20 03:39 -26.83062 167.36331 23859 ft 231 kts 332°
2026-04-20 03:40 -26.81493 167.35938 23860 ft 231 kts 332°
2026-04-20 03:40 -26.79923 167.35548 23861 ft 231 kts 332°
2026-04-20 03:40 -26.78349 167.35158 23861 ft 231 kts 332°
2026-04-20 03:40 -26.76783 167.34766 23860 ft 231 kts 332°
2026-04-20 03:41 -26.75211 167.34376 23859 ft 231 kts 332°
2026-04-20 03:41 -26.73644 167.33985 23860 ft 231 kts 332°
2026-04-20 03:41 -26.72078 167.33600 23860 ft 231 kts 332°
2026-04-20 03:41 -26.70507 167.33214 23861 ft 231 kts 332°
2026-04-20 03:42 -26.68938 167.32829 23861 ft 231 kts 332°
2026-04-20 03:42 -26.67368 167.32443 23860 ft 231 kts 332°
2026-04-20 03:42 -26.65800 167.32056 23858 ft 231 kts 332°
2026-04-20 03:42 -26.64235 167.31666 23859 ft 231 kts 332°
2026-04-20 03:43 -26.62667 167.31272 23859 ft 231 kts 332°
2026-04-20 03:43 -26.61104 167.30879 23860 ft 231 kts 332°
2026-04-20 03:43 -26.59537 167.30485 23860 ft 230 kts 332°
2026-04-20 03:43 -26.57992 167.30096 23861 ft 231 kts 332°
2026-04-20 03:44 -26.56427 167.29706 23865 ft 231 kts 332°
2026-04-20 03:44 -26.54858 167.29318 23868 ft 231 kts 332°
2026-04-20 03:44 -26.53290 167.28934 23869 ft 230 kts 332°
2026-04-20 03:44 -26.51725 167.28549 23870 ft 230 kts 332°
2026-04-20 03:45 -26.50164 167.28162 23869 ft 230 kts 332°
2026-04-20 03:45 -26.48597 167.27774 23869 ft 231 kts 332°
2026-04-20 03:45 -26.47031 167.27387 23868 ft 230 kts 332°
2026-04-20 03:45 -26.45467 167.27000 23868 ft 230 kts 332°
2026-04-20 03:46 -26.43905 167.26613 23869 ft 230 kts 332°
2026-04-20 03:46 -26.42341 167.26224 23869 ft 230 kts 332°
2026-04-20 03:46 -26.40777 167.25839 23869 ft 230 kts 332°
2026-04-20 03:46 -26.39215 167.25453 23869 ft 230 kts 332°
2026-04-20 03:47 -26.37652 167.25063 23870 ft 230 kts 332°
2026-04-20 03:47 -26.36089 167.24676 23872 ft 230 kts 332°
2026-04-20 03:47 -26.34546 167.24293 23871 ft 230 kts 332°
2026-04-20 03:47 -26.32980 167.23908 23870 ft 230 kts 332°
2026-04-20 03:48 -26.31416 167.23522 23869 ft 230 kts 332°
2026-04-20 03:48 -26.29854 167.23137 23867 ft 230 kts 332°
2026-04-20 03:48 -26.28292 167.22751 23868 ft 230 kts 332°
2026-04-20 03:48 -26.26728 167.22365 23869 ft 230 kts 332°
2026-04-20 03:49 -26.25168 167.21979 23869 ft 230 kts 332°
2026-04-20 03:49 -26.23604 167.21593 23870 ft 230 kts 332°
2026-04-20 03:49 -26.22039 167.21207 23872 ft 230 kts 332°
2026-04-20 03:49 -26.20471 167.20821 23875 ft 230 kts 332°
2026-04-20 03:50 -26.18910 167.20440 23875 ft 230 kts 332°
2026-04-20 03:50 -26.17346 167.20057 23877 ft 230 kts 332°
2026-04-20 03:50 -26.15783 167.19673 23878 ft 230 kts 332°
2026-04-20 03:50 -26.14220 167.19289 23878 ft 230 kts 332°
2026-04-20 03:51 -26.12658 167.18903 23879 ft 230 kts 332°
2026-04-20 03:51 -26.11096 167.18518 23879 ft 230 kts 332°
2026-04-20 03:51 -26.09549 167.18136 23878 ft 230 kts 332°
2026-04-20 03:51 -26.07983 167.17751 23879 ft 230 kts 332°
2026-04-20 03:52 -26.06419 167.17367 23881 ft 230 kts 332°
2026-04-20 03:52 -26.04855 167.16983 23880 ft 230 kts 332°
2026-04-20 03:52 -26.03288 167.16598 23878 ft 230 kts 332°
2026-04-20 03:52 -26.01722 167.16213 23877 ft 230 kts 332°
2026-04-20 03:53 -26.00160 167.15826 23877 ft 230 kts 332°
2026-04-20 03:53 -25.98596 167.15440 23878 ft 230 kts 332°
2026-04-20 03:53 -25.97034 167.15055 23878 ft 230 kts 332°
2026-04-20 03:53 -25.95476 167.14673 23879 ft 229 kts 332°
2026-04-20 03:54 -25.93912 167.14290 23879 ft 229 kts 332°
2026-04-20 03:54 -25.92353 167.13908 23879 ft 229 kts 332°
2026-04-20 03:54 -25.90794 167.13526 23879 ft 229 kts 332°
2026-04-20 03:54 -25.89234 167.13144 23878 ft 229 kts 332°
2026-04-20 03:55 -25.87698 167.12767 23878 ft 229 kts 332°
2026-04-20 03:55 -25.86143 167.12385 23880 ft 229 kts 332°
2026-04-20 03:55 -25.84589 167.12004 23883 ft 229 kts 333°
2026-04-20 03:55 -25.83032 167.11623 23886 ft 229 kts 333°
2026-04-20 03:56 -25.81479 167.11244 23887 ft 229 kts 332°
2026-04-20 03:56 -25.79925 167.10863 23888 ft 229 kts 333°
2026-04-20 03:56 -25.78368 167.10485 23889 ft 229 kts 333°
2026-04-20 03:56 -25.76807 167.10103 23887 ft 229 kts 332°
2026-04-20 03:57 -25.75254 167.09722 23887 ft 229 kts 332°
2026-04-20 03:57 -25.73694 167.09341 23888 ft 229 kts 333°
2026-04-20 03:57 -25.72139 167.08961 23889 ft 229 kts 332°
2026-04-20 03:57 -25.70578 167.08580 23887 ft 230 kts 333°
2026-04-20 03:58 -25.69015 167.08200 23888 ft 230 kts 332°
2026-04-20 03:58 -25.67453 167.07818 23887 ft 230 kts 333°
2026-04-20 03:58 -25.65913 167.07442 23887 ft 229 kts 333°
2026-04-20 03:58 -25.64335 167.07056 23888 ft 229 kts 333°
2026-04-20 03:59 -25.62796 167.06681 23889 ft 229 kts 332°
2026-04-20 03:59 -25.61237 167.06300 23888 ft 229 kts 332°
2026-04-20 03:59 -25.59680 167.05921 23887 ft 229 kts 332°
2026-04-20 03:59 -25.58126 167.05542 23887 ft 229 kts 333°
2026-04-20 04:00 -25.56569 167.05164 23888 ft 229 kts 333°
2026-04-20 04:00 -25.55014 167.04785 23888 ft 229 kts 333°
2026-04-20 04:00 -25.53463 167.04410 23888 ft 228 kts 333°
2026-04-20 04:00 -25.51910 167.04034 23888 ft 228 kts 333°
2026-04-20 04:01 -25.50359 167.03656 23888 ft 228 kts 333°
2026-04-20 04:01 -25.48808 167.03279 23888 ft 228 kts 333°
2026-04-20 04:01 -25.47256 167.02902 23890 ft 228 kts 333°
2026-04-20 04:01 -25.45707 167.02526 23894 ft 227 kts 333°
2026-04-20 04:02 -25.44163 167.02149 23896 ft 228 kts 333°
2026-04-20 04:02 -25.42636 167.01778 23897 ft 228 kts 333°
2026-04-20 04:02 -25.41084 167.01401 23899 ft 228 kts 333°
2026-04-20 04:02 -25.39532 167.01023 23896 ft 228 kts 333°
2026-04-20 04:03 -25.37980 167.00646 23896 ft 228 kts 333°
2026-04-20 04:03 -25.36433 167.00272 23897 ft 228 kts 333°
2026-04-20 04:03 -25.34882 166.99895 23897 ft 228 kts 332°
2026-04-20 04:03 -25.33333 166.99516 23897 ft 228 kts 333°
2026-04-20 04:04 -25.31787 166.99140 23897 ft 228 kts 333°
2026-04-20 04:04 -25.30233 166.98765 23897 ft 227 kts 333°
2026-04-20 04:04 -25.28690 166.98390 23897 ft 227 kts 333°
2026-04-20 04:04 -25.27144 166.98015 23897 ft 227 kts 333°
2026-04-20 04:05 -25.25599 166.97639 23897 ft 228 kts 333°
2026-04-20 04:05 -25.24051 166.97263 23897 ft 228 kts 333°
2026-04-20 04:05 -25.22504 166.96889 23898 ft 228 kts 333°
2026-04-20 04:05 -25.20954 166.96512 23897 ft 228 kts 333°
2026-04-20 04:06 -25.19405 166.96136 23897 ft 228 kts 333°
2026-04-20 04:06 -25.17858 166.95760 23897 ft 227 kts 333°
2026-04-20 04:06 -25.16312 166.95385 23898 ft 228 kts 333°
2026-04-20 04:06 -25.14765 166.95011 23898 ft 227 kts 333°
2026-04-20 04:07 -25.13219 166.94639 23897 ft 227 kts 333°
2026-04-20 04:07 -25.11675 166.94264 23899 ft 228 kts 333°
2026-04-20 04:07 -25.10148 166.93895 23899 ft 228 kts 333°
2026-04-20 04:07 -25.08600 166.93521 23898 ft 228 kts 333°
2026-04-20 04:08 -25.07053 166.93146 23897 ft 228 kts 333°
2026-04-20 04:08 -25.05507 166.92774 23898 ft 228 kts 333°
2026-04-20 04:08 -25.03958 166.92399 23903 ft 227 kts 333°
2026-04-20 04:08 -25.02416 166.92028 23905 ft 227 kts 333°
2026-04-20 04:09 -25.00872 166.91655 23905 ft 227 kts 333°
2026-04-20 04:09 -24.99331 166.91283 23905 ft 227 kts 333°
2026-04-20 04:09 -24.97788 166.90910 23905 ft 227 kts 333°
2026-04-20 04:09 -24.96243 166.90537 23906 ft 227 kts 333°
2026-04-20 04:10 -24.94702 166.90164 23907 ft 226 kts 333°
2026-04-20 04:10 -24.93163 166.89794 23907 ft 227 kts 333°
2026-04-20 04:10 -24.91620 166.89422 23907 ft 226 kts 333°
2026-04-20 04:10 -24.90082 166.89051 23906 ft 226 kts 333°
2026-04-20 04:11 -24.88544 166.88679 23906 ft 226 kts 333°
2026-04-20 04:11 -24.87006 166.88309 23906 ft 226 kts 333°
2026-04-20 04:11 -24.85470 166.87941 23907 ft 226 kts 333°
2026-04-20 04:11 -24.83933 166.87571 23904 ft 226 kts 333°
2026-04-20 04:12 -24.82399 166.87203 23901 ft 226 kts 333°
2026-04-20 04:12 -24.80861 166.86834 23897 ft 226 kts 333°
2026-04-20 04:12 -24.79345 166.86470 23893 ft 226 kts 333°
2026-04-20 04:12 -24.77809 166.86100 23892 ft 226 kts 333°
2026-04-20 04:13 -24.76277 166.85729 23895 ft 226 kts 333°
2026-04-20 04:13 -24.74742 166.85359 23896 ft 225 kts 333°
2026-04-20 04:13 -24.73213 166.84993 23897 ft 225 kts 333°
2026-04-20 04:13 -24.71681 166.84629 23897 ft 225 kts 333°
2026-04-20 04:14 -24.70150 166.84262 23897 ft 225 kts 333°
2026-04-20 04:14 -24.68619 166.83894 23897 ft 225 kts 333°
2026-04-20 04:14 -24.67093 166.83528 23897 ft 225 kts 333°
2026-04-20 04:14 -24.65561 166.83160 23898 ft 225 kts 333°
2026-04-20 04:15 -24.64036 166.82793 23897 ft 225 kts 333°
2026-04-20 04:15 -24.62507 166.82427 23897 ft 225 kts 333°
2026-04-20 04:15 -24.60978 166.82063 23896 ft 224 kts 333°
2026-04-20 04:15 -24.59452 166.81695 23896 ft 224 kts 333°
2026-04-20 04:16 -24.57925 166.81331 23897 ft 224 kts 333°
2026-04-20 04:16 -24.56897 166.81084 23897 ft 224 kts 333°
2026-04-20 04:16 -24.55370 166.80717 23897 ft 224 kts 333°
2026-04-20 04:16 -24.53865 166.80355 23898 ft 224 kts 333°
2026-04-20 04:17 -24.52338 166.79992 23897 ft 224 kts 333°
2026-04-20 04:17 -24.50812 166.79625 23897 ft 224 kts 333°
2026-04-20 04:17 -24.49286 166.79262 23897 ft 224 kts 333°
2026-04-20 04:17 -24.47760 166.78898 23897 ft 224 kts 333°
2026-04-20 04:18 -24.46235 166.78535 23897 ft 224 kts 333°
2026-04-20 04:18 -24.44716 166.78173 23898 ft 224 kts 333°
2026-04-20 04:18 -24.43196 166.77807 23897 ft 224 kts 333°
2026-04-20 04:18 -24.41675 166.77442 23897 ft 224 kts 333°
2026-04-20 04:19 -24.40152 166.77079 23897 ft 223 kts 333°
2026-04-20 04:19 -24.38635 166.76719 23896 ft 223 kts 333°
2026-04-20 04:19 -24.37114 166.76355 23897 ft 223 kts 333°
2026-04-20 04:19 -24.35615 166.75998 23897 ft 223 kts 333°
2026-04-20 04:20 -24.34099 166.75637 23897 ft 223 kts 333°
2026-04-20 04:20 -24.32578 166.75273 23898 ft 223 kts 333°
2026-04-20 04:20 -24.31060 166.74907 23897 ft 223 kts 333°
2026-04-20 04:20 -24.29540 166.74541 23897 ft 223 kts 333°
2026-04-20 04:21 -24.28027 166.74178 23897 ft 223 kts 333°
2026-04-20 04:21 -24.26503 166.73815 23897 ft 223 kts 333°
2026-04-20 04:21 -24.24984 166.73454 23897 ft 224 kts 333°
2026-04-20 04:21 -24.23464 166.73092 23897 ft 223 kts 333°
2026-04-20 04:22 -24.21945 166.72730 23897 ft 223 kts 334°
2026-04-20 04:22 -24.20427 166.72368 23897 ft 223 kts 333°
2026-04-20 04:22 -24.18904 166.72005 23897 ft 223 kts 333°
2026-04-20 04:22 -24.17383 166.71643 23899 ft 224 kts 333°
2026-04-20 04:23 -24.15861 166.71281 23897 ft 224 kts 334°
2026-04-20 04:23 -24.14358 166.70920 23898 ft 223 kts 334°
2026-04-20 04:23 -24.12842 166.70560 23897 ft 223 kts 334°
2026-04-20 04:23 -24.11322 166.70197 23900 ft 223 kts 334°
2026-04-20 04:24 -24.09804 166.69836 23896 ft 223 kts 334°
2026-04-20 04:24 -24.08286 166.69475 23896 ft 223 kts 334°
2026-04-20 04:24 -24.06763 166.69108 23896 ft 223 kts 333°
2026-04-20 04:24 -24.05252 166.68741 23897 ft 223 kts 333°
2026-04-20 04:25 -24.03735 166.68372 23898 ft 223 kts 333°
2026-04-20 04:25 -24.02221 166.68008 23897 ft 223 kts 334°
2026-04-20 04:25 -24.00710 166.67648 23897 ft 223 kts 334°
2026-04-20 04:25 -23.99192 166.67292 23897 ft 223 kts 334°
2026-04-20 04:26 -23.97679 166.66932 23897 ft 222 kts 334°
2026-04-20 04:26 -23.96167 166.66567 23898 ft 222 kts 334°
2026-04-20 04:26 -23.94655 166.66208 23900 ft 222 kts 334°
2026-04-20 04:26 -23.93153 166.65857 23903 ft 223 kts 334°
2026-04-20 04:27 -23.91644 166.65502 23905 ft 222 kts 334°
2026-04-20 04:27 -23.90130 166.65146 23905 ft 223 kts 334°
2026-04-20 04:27 -23.88612 166.64791 23906 ft 223 kts 334°
2026-04-20 04:27 -23.87098 166.64436 23906 ft 223 kts 334°
2026-04-20 04:28 -23.85580 166.64078 23906 ft 223 kts 334°
2026-04-20 04:28 -23.84065 166.63724 23906 ft 223 kts 334°
2026-04-20 04:28 -23.82545 166.63369 23906 ft 223 kts 334°
2026-04-20 04:28 -23.81028 166.63010 23907 ft 223 kts 334°
2026-04-20 04:29 -23.79509 166.62655 23906 ft 223 kts 334°
2026-04-20 04:29 -23.77992 166.62301 23906 ft 223 kts 334°
2026-04-20 04:29 -23.76474 166.61944 23906 ft 223 kts 334°
2026-04-20 04:29 -23.74957 166.61588 23907 ft 223 kts 334°
2026-04-20 04:30 -23.73435 166.61233 23906 ft 223 kts 334°
2026-04-20 04:30 -23.71920 166.60877 23907 ft 223 kts 334°
2026-04-20 04:30 -23.70403 166.60521 23906 ft 222 kts 334°
2026-04-20 04:30 -23.68892 166.60168 23906 ft 222 kts 334°
2026-04-20 04:31 -23.67377 166.59815 23906 ft 222 kts 334°
2026-04-20 04:31 -23.65887 166.59466 23906 ft 222 kts 334°
2026-04-20 04:31 -23.64372 166.59109 23907 ft 222 kts 334°
2026-04-20 04:31 -23.62841 166.58752 23907 ft 222 kts 334°
2026-04-20 04:32 -23.61349 166.58403 23906 ft 222 kts 334°
2026-04-20 04:32 -23.59838 166.58049 23906 ft 222 kts 334°
2026-04-20 04:32 -23.58328 166.57697 23907 ft 222 kts 334°
2026-04-20 04:32 -23.56817 166.57343 23906 ft 222 kts 334°
2026-04-20 04:33 -23.55306 166.56991 23906 ft 222 kts 334°
2026-04-20 04:33 -23.53803 166.56640 23908 ft 222 kts 334°
2026-04-20 04:33 -23.52265 166.56282 23906 ft 222 kts 334°
2026-04-20 04:33 -23.50750 166.55927 23907 ft 222 kts 334°
2026-04-20 04:34 -23.49239 166.55572 23906 ft 223 kts 334°
2026-04-20 04:34 -23.47719 166.55216 23906 ft 223 kts 334°
2026-04-20 04:34 -23.46199 166.54862 23906 ft 223 kts 334°
2026-04-20 04:34 -23.44680 166.54508 23906 ft 223 kts 334°
2026-04-20 04:35 -23.43162 166.54154 23907 ft 223 kts 334°
2026-04-20 04:35 -23.41641 166.53801 23908 ft 223 kts 334°
2026-04-20 04:35 -23.40123 166.53448 23907 ft 223 kts 334°
2026-04-20 04:35 -23.38602 166.53093 23907 ft 224 kts 334°
2026-04-20 04:36 -23.35558 166.52383 23907 ft 224 kts 334°
2026-04-20 04:36 -23.34040 166.52028 23906 ft 224 kts 334°
2026-04-20 04:36 -23.32537 166.51677 23907 ft 224 kts 334°
2026-04-20 04:37 -23.31010 166.51321 23906 ft 224 kts 334°
2026-04-20 04:37 -23.29489 166.50966 23906 ft 224 kts 334°
2026-04-20 04:37 -23.27967 166.50613 23906 ft 224 kts 334°
2026-04-20 04:37 -23.26444 166.50260 23907 ft 224 kts 334°
2026-04-20 04:38 -23.24919 166.49906 23906 ft 224 kts 334°
2026-04-20 04:38 -23.23393 166.49550 23907 ft 224 kts 334°
2026-04-20 04:38 -23.21867 166.49191 23906 ft 224 kts 334°
2026-04-20 04:38 -23.20342 166.48833 23907 ft 225 kts 334°
2026-04-20 04:39 -23.18817 166.48479 23906 ft 225 kts 334°
2026-04-20 04:39 -23.17283 166.48121 23906 ft 225 kts 334°
2026-04-20 04:39 -23.15767 166.47769 23906 ft 225 kts 334°
2026-04-20 04:39 -23.14233 166.47415 23908 ft 226 kts 334°
2026-04-20 04:40 -23.12699 166.47059 23906 ft 226 kts 334°
2026-04-20 04:40 -23.11162 166.46701 23905 ft 226 kts 334°
2026-04-20 04:40 -23.09623 166.46344 23906 ft 226 kts 334°
2026-04-20 04:40 -23.08085 166.45987 23908 ft 226 kts 334°
2026-04-20 04:41 -23.06553 166.45632 23908 ft 226 kts 334°
2026-04-20 04:41 -23.05018 166.45277 23906 ft 226 kts 334°
2026-04-20 04:41 -23.03492 166.44925 23905 ft 226 kts 334°
2026-04-20 04:41 -23.01959 166.44570 23905 ft 226 kts 334°
2026-04-20 04:42 -23.00423 166.44211 23908 ft 226 kts 334°
2026-04-20 04:42 -22.98886 166.43853 23912 ft 226 kts 334°
2026-04-20 04:42 -22.97353 166.43496 23915 ft 226 kts 334°
2026-04-20 04:42 -22.95831 166.43143 23920 ft 226 kts 334°
2026-04-20 04:43 -22.94295 166.42788 23923 ft 226 kts 334°
2026-04-20 04:43 -22.92759 166.42432 23927 ft 226 kts 334°
2026-04-20 04:43 -22.91224 166.42077 23931 ft 225 kts 334°
2026-04-20 04:43 -22.89686 166.41722 23933 ft 225 kts 334°
2026-04-20 04:44 -22.88151 166.41369 23935 ft 225 kts 334°
2026-04-20 04:44 -22.86617 166.41015 23935 ft 226 kts 334°
2026-04-20 04:44 -22.85079 166.40659 23933 ft 226 kts 334°
2026-04-20 04:44 -22.83538 166.40302 23936 ft 226 kts 334°
2026-04-20 04:45 -22.82002 166.39943 23936 ft 226 kts 334°
2026-04-20 04:45 -22.80460 166.39583 23933 ft 227 kts 334°
2026-04-20 04:45 -22.78915 166.39224 23931 ft 227 kts 334°
2026-04-20 04:45 -22.77369 166.38867 23932 ft 227 kts 334°
2026-04-20 04:46 -22.75825 166.38511 23932 ft 227 kts 334°
2026-04-20 04:46 -22.74281 166.38156 23935 ft 227 kts 334°
2026-04-20 04:46 -22.72732 166.37800 23936 ft 227 kts 334°
2026-04-20 04:46 -22.71207 166.37439 23935 ft 227 kts 334°
2026-04-20 04:47 -22.69595 166.37050 23534 ft 243 kts 335°
2026-04-20 04:47 -22.67898 166.36649 23093 ft 256 kts 336°
2026-04-20 04:47 -22.66134 166.36237 22635 ft 267 kts 336°
2026-04-20 04:47 -22.64282 166.35806 22152 ft 277 kts 337°
2026-04-20 04:48 -22.62369 166.35363 21654 ft 284 kts 338°
2026-04-20 04:48 -22.60417 166.34910 21140 ft 290 kts 339°
2026-04-20 04:48 -22.58462 166.34458 20908 ft 285 kts 338°
2026-04-20 04:48 -22.56807 166.34078 20473 ft 291 kts 339°
2026-04-20 04:49 -22.54813 166.33616 19947 ft 296 kts 339°
2026-04-20 04:49 -22.52787 166.33149 19412 ft 297 kts 340°
2026-04-20 04:49 -22.50796 166.32697 18883 ft 289 kts 340°
2026-04-20 04:49 -22.48844 166.32249 18365 ft 284 kts 340°
2026-04-20 04:50 -22.46919 166.31802 17854 ft 280 kts 340°
2026-04-20 04:50 -22.45027 166.31365 17353 ft 277 kts 340°
2026-04-20 04:50 -22.43147 166.30934 16854 ft 275 kts 340°
2026-04-20 04:50 -22.41277 166.30502 16374 ft 274 kts 341°
2026-04-20 04:51 -22.39429 166.30078 15873 ft 273 kts 341°
2026-04-20 04:51 -22.37572 166.29649 15382 ft 272 kts 341°
2026-04-20 04:51 -22.35709 166.29219 14889 ft 276 kts 341°
2026-04-20 04:51 -22.33797 166.28779 14384 ft 285 kts 341°
2026-04-20 04:52 -22.31834 166.28328 13866 ft 291 kts 341°
2026-04-20 04:52 -22.29855 166.27843 13337 ft 290 kts 338°
2026-04-20 04:52 -22.28016 166.27007 12825 ft 286 kts 328°
2026-04-20 04:52 -22.26284 166.25971 12487 ft 281 kts 325°
2026-04-20 04:53 -22.24603 166.24931 12206 ft 276 kts 326°
2026-04-20 04:53 -22.22951 166.23951 11925 ft 273 kts 327°
2026-04-20 04:53 -22.21266 166.23004 11652 ft 272 kts 328°
2026-04-20 04:53 -22.19586 166.22061 11277 ft 274 kts 328°
2026-04-20 04:54 -22.17941 166.21150 10745 ft 257 kts 328°
2026-04-20 04:54 -22.16375 166.20284 10239 ft 247 kts 328°
2026-04-20 04:54 -22.14892 166.19458 9760 ft 233 kts 328°
2026-04-20 04:54 -22.13487 166.18662 9304 ft 223 kts 328°
2026-04-20 04:55 -22.12140 166.17893 8867 ft 216 kts 329°
2026-04-20 04:55 -22.10833 166.17141 8444 ft 210 kts 328°
2026-04-20 04:55 -22.09552 166.16409 8028 ft 205 kts 328°
2026-04-20 04:55 -22.08300 166.15696 7625 ft 202 kts 329°
2026-04-20 04:56 -22.07062 166.14997 7236 ft 200 kts 329°
2026-04-20 04:56 -22.05834 166.14305 6832 ft 198 kts 329°
2026-04-20 04:56 -22.04617 166.13619 6436 ft 197 kts 329°
2026-04-20 04:56 -22.03411 166.12937 6063 ft 196 kts 328°
2026-04-20 04:57 -22.02200 166.12256 5666 ft 196 kts 328°
2026-04-20 04:57 -22.00989 166.11574 5268 ft 196 kts 329°
2026-04-20 04:57 -21.99782 166.10894 4876 ft 195 kts 329°
2026-04-20 04:57 -21.98972 166.10440 4614 ft 195 kts 328°
2026-04-20 04:58 -21.97776 166.09771 4241 ft 193 kts 329°
2026-04-20 04:58 -21.96603 166.09113 3899 ft 194 kts 328°
2026-04-20 04:58 -21.95336 166.08438 3176 ft 207 kts 334°
2026-04-20 04:58 -21.93965 166.08286 2901 ft 199 kts 15°
2026-04-20 04:59 -21.93007 166.09202 2538 ft 184 kts 69°
2026-04-20 04:59 -21.93011 166.10504 2109 ft 171 kts 116°
2026-04-20 04:59 -21.93862 166.11397 1860 ft 176 kts 159°
2026-04-20 04:59 -21.94969 166.11363 1785 ft 150 kts 206°
2026-04-20 05:00 -21.95548 166.10547 1756 ft 130 kts 245°
2026-04-20 05:00 -21.96182 166.09888 1744 ft 146 kts 193°
2026-04-20 05:00 -21.97176 166.10159 1751 ft 155 kts 147°
2026-04-20 05:00 -21.97524 166.11274 1723 ft 173 kts 91°
2026-04-20 05:01 -21.97495 166.12610 1535 ft 183 kts 100°
2026-04-20 05:01 -21.97782 166.13846 1325 ft 163 kts 108°
2026-04-20 05:01 -21.98066 166.14955 1079 ft 144 kts 108°
2026-04-20 05:01 -21.98443 166.15900 763 ft 132 kts 123°
2026-04-20 05:02 -21.98855 166.16666 682 ft 112 kts 124°
2026-04-20 05:02 -21.99262 166.17437 631 ft 116 kts 124°
2026-04-20 05:02 -21.99699 166.18198 515 ft 118 kts 125°
2026-04-20 05:02 -22.00132 166.18967 326 ft 117 kts 125°
2026-04-20 05:03 -22.00549 166.19690 115 ft 119 kts 123°
2026-04-20 05:03 -22.00982 166.20462 32 ft 114 kts 123°
2026-04-20 05:03 -22.01314 166.21049 24 ft 86 kts 119°
2026-04-20 05:03 -22.01514 166.21399 22 ft 37 kts 120°
2026-04-20 05:04 -22.01603 166.21569 24 ft 13 kts 122°
2026-04-20 05:04 -22.01614 166.21630 24 ft 3 kts 43°
2026-04-20 05:04 -22.01561 166.21661 23 ft 13 kts 30°
2026-04-20 05:04 -22.01511 166.21658 23 ft 4 kts 298°
2026-04-20 05:05 -22.01497 166.21621 23 ft 3 kts 296°
2026-04-20 05:05 -22.01482 166.21623 23 ft 7 kts 45°
2026-04-20 05:05 -22.01493 166.21643 23 ft 6 kts 127°
2026-04-20 05:05 -22.01495 166.21664 23 ft 1 kts 38°
2026-04-20 05:06 -22.01474 166.21673 23 ft 10 kts 31°
2026-04-20 05:06 -22.01450 166.21675 23 ft 2 kts 311°
2026-04-20 05:06 -22.01446 166.21658 23 ft 3 kts 274°
2026-04-20 05:06 -22.01444 166.21637 23 ft 1 kts 276°
2026-04-20 05:07 -22.01444 166.21634 23 ft 0 kts 276°